Regional Weather Roundup
Issued by NWS

Home | Current Version | Previous Version | Text Only | Print | Product List | Glossary Off
Versions: 1 2 3 4 5 6 7 8 9 10 11 12 13 14 15 16 17 18 19 20 21 22 23 24 25 26 27 28 29 30 31 32 33 34 35 36 37 38 39 40 41 42 43 44 45 46 47 48 49 50

000
ASUS45 KBOU 271807
RWRCO

WEATHER ROUNDUP FOR COLORADO
NATIONAL WEATHER SERVICE DENVER/BOULDER CO
1200 PM MDT THU AUG 27 2015

NOTE: "FAIR" INDICATES FEW OR NO CLOUDS BELOW 12000 FEET WITH NO
SIGNIFICANT WEATHER AND/OR OBSTRUCTIONS TO VISIBILITY.

COZ001>005-013-030-031-271900-
...NORTHWEST COLORADO...

CITY           SKY/WX    TMP DP  RH WIND       PRES   REMARKS
CRAIG          LGT RAIN  66  57  72 W9        30.31F
HAYDEN         NOT AVBL
MEEKER         CLOUDY    67  57  70 S5        30.33F
MOUNT WERNER   NOT AVBL
STEAMBOAT SPGS NOT AVBL
WALDEN         NOT AVBL
$$

COZ006>008-011-271900-
...WEST CENTRAL VALLEYS...

CITY           SKY/WX    TMP DP  RH WIND       PRES   REMARKS
GRAND JUNCTION PTSUNNY   69  62  78 CALM      30.27F
MONTROSE       PTSUNNY   71  61  70 NE6       30.33F
EAGLE          LGT RAIN  64  59  82 CALM      30.35F
RIFLE          PTSUNNY   67  60  78 CALM      30.30F
DELTA          NOT AVBL
NUCLA          NOT AVBL
$$

COZ017>023-064>068-271900-
...SOUTHWEST COLORADO...

CITY           SKY/WX    TMP DP  RH WIND       PRES   REMARKS
DURANGO        PTSUNNY   69  54  58 VRB5      30.39F
CORTEZ         MOSUNNY   73  58  59 S7        30.34F
PAGOSA SPRINGS CLOUDY    65  51  60 S5        30.46S
TELLURIDE      LGT RAIN  58  50  74 NW5       30.55S
WOLF CREEK PAS NOT AVBL
$$

COZ009-010-012-014-032>034-037-058>063-271900-
...CENTRAL COLORADO...

CITY           SKY/WX    TMP DP  RH WIND       PRES   REMARKS
ASPEN          CLOUDY    65  52  62 N8        30.40F
BUENA VISTA    NOT AVBL
COPPER MTN     NOT AVBL
BERTHOUD PASS  NOT AVBL
COTTONWOOD PAS NOT AVBL
GUNNISON       CLOUDY    61  54  77 CALM      30.44F
KREMMLING      NOT AVBL
LEADVILLE      CLOUDY    59  41  51 NW13G22   30.51S
SALIDA         MOSUNNY   75  48  38 SW16      30.42F
SUNLIGHT       NOT AVBL
WILKERSON PASS NOT AVBL
$$

COZ069>075-271900-
...SAN LUIS VALLEY/SANGRE DE CRISTO MOUNTAINS...

CITY           SKY/WX    TMP DP  RH WIND       PRES   REMARKS
ALAMOSA        MOSUNNY   70  47  43 CALM      30.39F
LA VETA PASS   NOT AVBL
SAGUACHE       NOT AVBL
$$

COZ035-036-038>040-271900-
...NORTHERN COLORADO FRONT RANGE...

CITY           SKY/WX    TMP DP  RH WIND       PRES   REMARKS
DENVER INTL AP PTSUNNY   81  48  31 NW10      30.15F
DMNS CITY PARK   N/A     82  47  29 N3G14     30.13F
AURORA         PTSUNNY   81  48  32 NW7G16    30.18S
FRONT RANGE AP PTSUNNY   81  46  30 NW3       30.17F
ERIE MUNI ARPT NOT AVBL
BOULDER MUN AP NOT AVBL
CENTENNIAL     PTSUNNY   81  50  33 NW8       30.19F
BROOMFIELD     PTSUNNY   82  48  30 W14       30.17F
FORT COLLINS   MOSUNNY   82  55  39 N20G25    30.12F
LONGMONT       NOT AVBL
$$

COZ041-046-047-076>085-087-088-271900-
...PIKES PEAK/PALMER DIVIDE AND SOUTHERN FOOTHILLS...

CITY           SKY/WX    TMP DP  RH WIND       PRES   REMARKS
COLO. SPRINGS  PTSUNNY   80  45  28 SW12      30.22S
A. F. ACADEMY  PTSUNNY   77  46  32 W8        30.23F
ELLICOTT       PTSUNNY  N/A N/A N/A SW9       30.19F
FALCON         NOT AVBL
FORT CARSON    PTSUNNY   80  48  32 VRB2      30.18F
LIMON          MOSUNNY   80  50  34 NW12      30.15F
MONUMENT HILL  NOT AVBL
TRINIDAD       MOSUNNY   86  45  23 S6        30.19F
$$

COZ042>045-048>051-090-091-271900-
...NORTHEAST COLORADO...

CITY           SKY/WX    TMP DP  RH WIND       PRES   REMARKS
GREELEY ARPT   MOSUNNY   84  54  34 N21       30.10F
AKRON          MOSUNNY   88  46  23 NW24G31   30.06F
BURLINGTON     MOSUNNY   87  48  25 NW18G25   30.04F
WRAY           SUNNY     92  49  23 NW23G33   29.96F
STERLING       NOT AVBL
HOLYOKE        NOT AVBL
FORT MORGAN    NOT AVBL
$$

COZ086-089-092>099-271900-
...SOUTHEAST COLORADO...

CITY           SKY/WX    TMP DP  RH WIND       PRES   REMARKS
PUEBLO         PTSUNNY   90  49  24 W12G25    30.09F
LA JUNTA       MOSUNNY   89  48  24 SE8       30.06F
LAMAR          MOSUNNY   88  53  30 CALM      30.01F
SPRINGFIELD      N/A     88  49  25 CALM      30.06F
$$



USA.gov is the U.S. government's official web portal to all federal, state and local government web resources and services.